Location: Dannhausen
(51.8650°N, 10.1026°E)
Time: 08:28:16
(UTC+00:00)

Cosmos 2173 Rocket - Pass Details

Date: 09 April 2020
Orbit: 946 x 1000 km, 83.0° (Epoch: 01 June)

Event Time Altitude Azimuth Distance (km) Brightness Sun altitude
Rises 22:17:30 0° 350° (N) 3,629 8.2 -28.6°
Reaches altitude 10° 22:20:01 10° 353° (N) 2,682 7.2 -28.7°
Maximum altitude 22:26:08 69° 77° (ENE) 1,016 3.9 -29.0°
Enters shadow 22:26:12 69° 82° (E) 1,016 3.9 -29.0°
